Location: Buttermere
(51.3333°N, 1.5167°W)
Time: 16:29:09
(UTC+00:00)

USA 234 - Visible Passes

Search period start: 30 November 2021 00:00
Search period end: 10 December 2021 00:00
Orbit: 1098 x 1110 km, 123.0° (Epoch: 25 November)

Date Brightness Start Highest point End Pass type
(mag) Time Alt. Az. Time Alt. Az. Time Alt. Az.
30 Nov 4.8 17:59:54 10° SSE 18:05:44 34° SW 18:11:35 10° WNW visible
01 Dec 3.9 17:16:12 10° SE 17:22:37 57° SW 17:29:03 10° WNW visible
01 Dec 5.6 19:02:19 10° SSW 19:06:37 18° WSW 19:10:57 10° W visible
02 Dec 3.4 16:33:08 10° ESE 16:39:42 86° SSW 16:46:17 10° WNW visible
02 Dec 4.8 18:17:27 10° SSE 18:23:16 34° SW 18:29:08 10° WNW visible
03 Dec 3.9 17:33:44 10° SE 17:40:09 57° SW 17:46:35 10° WNW visible
03 Dec 5.5 19:19:52 10° SSW 19:24:10 18° WSW 19:28:29 10° W visible
04 Dec 3.4 16:50:41 10° ESE 16:57:15 86° SSW 17:03:49 10° WNW visible
04 Dec 4.7 18:34:59 10° SSE 18:40:49 34° SW 18:46:40 10° WNW visible
05 Dec 3.9 17:51:17 10° SE 17:57:42 57° SW 18:04:07 10° WNW visible
05 Dec 5.5 19:37:26 10° SSW 19:41:43 18° WSW 19:46:00 10° W visible
06 Dec 3.3 17:08:13 10° ESE 17:14:47 85° SSW 17:21:22 10° WNW visible
06 Dec 4.7 18:52:33 10° SSE 18:58:21 34° SW 19:04:12 10° WNW visible
07 Dec 3.3 16:25:32 10° ESE 16:32:03 71° NNE 16:38:33 10° WNW visible
07 Dec 3.8 18:08:49 10° SE 18:15:14 56° SW 18:21:40 10° WNW visible
07 Dec 5.4 19:55:01 10° SSW 19:59:15 18° WSW 20:03:32 10° W visible
08 Dec 3.3 17:25:45 10° ESE 17:32:19 85° SSW 17:38:54 10° WNW visible
08 Dec 4.6 19:10:05 10° SSE 19:15:54 33° SW 19:21:44 10° WNW visible
09 Dec 3.3 16:43:05 10° ESE 16:49:35 71° NNE 16:56:06 10° WNW visible
09 Dec 3.8 18:26:22 10° SE 18:32:47 56° SW 18:39:12 10° WNW visible
09 Dec 5.4 20:13:34 13° SSW 20:16:48 18° WSW 20:21:03 10° W visible
